[[{"header":{"parameterUnit":"m.s-1","parameterCategory":1,"la1":30.2991,"la2":30.254,"lo1":-89.0895,"lo2":-89.0444,"dy":0.0017,"dx":0.0017,"nx":28,"ny":28,"refTime":"2024-07-10T21:00:00:Z","depth":0,"parameterNumber":2,"parameterNumberName":"U-component_of_WINDS"},"data":[0,0,0,0,0,0,0,0,0,0,0,0,0,0,0,0,0,0,0,0,0,0,0,0,0,0,0,0,0,0,0,0,0,0,0,0,0,0,0,0,0,0,0,0,0,0,0,0,0,0,0,0,0,0,0,0,0,0,2.9265,2.9266,0,2.9405,2.9407,2.9408,2.944,2.9439,2.9438,2.9438,2.9582,2.9587,2.9592,0,0,0,0,0,0,0,0,0,0,0,0,0,2.9025,2.903,2.9264,2.9266,2.9268,2.9405,2.9407,2.9409,2.9441,2.9439,2.9438,2.9437,2.9581,2.9586,2.9592,0,0,0,0,0,0,0,0,0,0,0,0,0,2.9144,2.9031,2.9264,2.93,2.9305,2.9405,2.9407,2.9409,2.9441,2.9439,2.9438,2.9437,2.9579,2.9586,2.9593,2.9666,0,0,2.9615,2.9618,0,0,0,0,0,0,0,0,2.9137,2.9153,2.9293,2.9298,2.9303,2.9404,2.9376,2.9496,2.9441,2.9389,2.9438,2.9436,2.9524,2.9536,2.9565,2.9673,2.9679,2.9615,2.962,2.9623,2.9625,0,0,0,0,0,0,0,2.9129,2.9147,2.932,2.9295,2.9302,2.931,2.9325,2.9399,2.9463,2.9394,2.9396,2.9413,2.9527,2.9558,2.9569,2.9682,2.9615,2.9621,2.9626,2.9629,2.9859,2.9861,0,0,0,0,0,0,2.9114,2.914,2.9316,2.9324,2.9215,2.9316,2.9333,2.9373,2.9463,2.9475,2.9414,2.9414,2.9547,2.9561,2.9574,2.9667,2.9623,2.9629,2.9633,2.9858,2.986,2.9862,0,0,0,0,0,0,2.9109,2.913,2.931,2.9233,2.9257,2.9321,2.9366,2.9377,2.9408,2.9478,2.9489,2.9434,2.9546,2.9564,2.9644,2.9673,2.9633,2.9639,2.9855,2.9858,2.9861,2.9854,0,0,0,0,0,0,2.9102,2.9127,2.9155,2.9233,2.9261,2.9377,2.9368,2.938,2.9421,2.9422,2.95,2.9511,2.9546,2.9633,2.9651,2.9682,2.9645,2.9853,2.9857,2.986,2.9852,2.9856,2.9859,0,0,0,0,0,2.9093,2.9148,2.9157,2.9178,2.9297,2.9378,2.9394,2.9433,2.9423,2.9452,2.9497,2.9509,2.9667,2.9641,2.9661,2.9695,2.9851,2.9856,2.986,2.985,2.9855,2.9859,0,0,0,0,0,0,2.9071,2.9158,2.9169,2.925,2.9307,2.9383,2.9421,2.9437,2.9497,2.9495,2.9542,2.9559,2.9636,2.9674,2.9643,2.9772,2.9759,2.9767,2.9744,2.975,2.9754,2.9743,2.9651,0,0,0,0,0,2.9076,2.9134,2.9207,2.9272,2.9299,2.9355,2.9392,2.9418,2.9478,2.9502,2.9552,2.9611,2.9674,2.9714,2.9776,2.9858,2.9876,2.9891,2.9895,2.9898,2.9905,2.9952,2.996,2.9875,2.9875,2.9875,0,0,2.9085,2.914,2.9174,2.9269,2.9315,2.9375,2.9375,2.9438,2.9484,2.9511,2.959,2.9629,2.9697,2.9779,2.9817,2.9813,2.9932,2.9903,2.9905,2.991,2.9957,2.9965,2.9972,2.9878,2.9878,2.9877,0,0,2.9134,2.9181,2.9241,2.9288,2.9359,2.9396,2.941,2.9485,2.9513,2.9592,2.9615,2.967,2.9777,2.9825,2.9864,2.9933,2.9947,2.9952,2.9973,3.0018,3.0025,3.0031,3.0057,3.0065,2.9959,2.9959,2.9959,0,2.9137,2.9228,2.9269,2.9332,2.9374,2.9402,2.9464,2.9507,2.9595,2.9623,2.9616,2.9753,2.9801,2.9894,2.9912,2.9942,2.996,2.9943,3.0021,3.0027,3.0034,3.0059,3.0068,2.9959,2.9959,2.9959,2.9959,0,2.923,2.9293,2.9332,2.9416,2.9463,2.9524,2.9575,2.9617,2.9639,2.9677,2.9759,2.9818,2.9893,2.9917,2.9939,3.0015,3.001,3.0011,2.9999,3.0041,3.0066,3.0075,2.9959,2.9959,2.9959,2.9959,0,0,2.9266,2.9374,2.9388,2.9427,2.9509,2.9558,2.9622,2.9696,2.9731,2.9791,2.9846,2.9937,2.994,2.9984,3.0011,3.0052,3.0104,3.0049,3.0051,3.0058,3.0193,3.0191,3.0201,3.0114,3.0116,3.0118,3.0187,0,2.9325,2.944,2.948,2.9575,2.9634,2.9663,2.9719,2.9775,2.9813,2.987,2.9912,2.9976,2.9975,3.0002,3.0043,3.0089,3.0132,3.0085,3.0167,3.0169,3.0148,3.0214,3.0211,3.0274,3.0197,3.0199,3.02,0,2.9409,2.9471,2.9571,2.9647,2.9674,2.9723,2.9794,2.9848,2.9913,2.9938,2.9988,3.0013,3.0082,3.0066,3.0163,3.0129,3.0166,3.0194,3.0197,3.0206,3.0186,3.0224,3.0294,3.0304,3.0215,3.0214,3.0213,0,2.9427,2.9535,2.961,2.9642,2.9732,2.9766,2.9805,2.9869,2.9911,2.9974,3.0002,3.0072,3.011,3.0164,3.0208,3.0193,3.0301,3.0289,3.0324,3.0323,3.0345,3.0343,3.0422,3.0369,3.0369,3.0368,3.0368,0,2.9488,2.9549,2.9619,2.9665,2.9734,2.978,2.9848,2.9889,2.9946,3.0001,3.0031,3.0082,3.0137,3.0196,3.0231,3.0306,3.0323,3.0345,3.0354,3.0342,3.034,3.0366,3.0363,3.0371,3.037,3.037,3.037,0,2.9519,2.9568,2.9652,2.9731,2.9752,2.98,2.9868,2.9914,2.9954,3.0023,3.0042,3.0105,3.0176,3.0226,3.0316,3.034,3.0421,3.0429,3.0399,3.0403,3.0436,3.0432,3.0535,3.0551,3.0487,3.0487,3.0488,0,2.9555,2.9602,2.9687,2.9726,2.9765,2.9827,2.9871,2.9919,2.9963,3.0042,3.0079,3.0152,3.0213,3.0325,3.0379,3.0449,3.0459,3.0491,3.047,3.0457,3.046,3.0456,3.0462,3.0493,3.0494,3.0494,3.0494,0,2.9613,2.9636,2.9697,2.9768,2.9819,2.9877,2.9935,2.9966,3.0024,3.0073,3.0146,3.0193,3.0286,3.0359,3.0435,3.0476,3.0495,3.0501,3.0513,3.0501,3.0482,3.0493,3.0407,3.0498,3.0497,3.0497,3.0497,3.0497,2.9648,2.9692,2.9759,2.9827,2.9876,2.993,2.9978,3.0024,3.0086,3.0166,3.0191,3.0267,3.0333,3.0436,3.0479,3.054,3.0537,3.0555,3.0559,3.0562,3.0562,3.0473,3.0554,3.0554,3.0553,3.0553,3.0553,0,2.9708,2.9753,2.9815,2.9896,2.995,2.9964,3.003,3.0074,3.0141,3.0201,3.026,3.0345,3.0416,3.0476,3.055,3.0587,3.0598,3.0604,3.0602,3.0611,3.056,3.0542,3.0595,3.0595,3.0595,3.0594,3.0594,3.0594,2.9746,2.9822,2.9852,2.9953,2.9998,3.0073,3.0109,3.016,3.0208,3.0301,3.036,3.0399,3.046,3.0538,3.0604,3.0621,3.0646,3.0651,3.0669,3.062,3.0615,3.061,3.0594,3.0656,3.0656,3.0716,3.0716,3.0717]},{"header":{"parameterUnit":"m.s-1","parameterCategory":1,"la1":30.2991,"la2":30.254,"lo1":-89.0895,"lo2":-89.0444,"dy":0.0017,"dx":0.0017,"nx":28,"ny":28,"refTime":"2024-07-10T21:00:00:Z","depth":0,"parameterNumber":3,"parameterNumberName":"V-component_of_WINDS"},"data":[0,0,0,0,0,0,0,0,0,0,0,0,0,0,0,0,0,0,0,0,0,0,0,0,0,0,0,0,0,0,0,0,0,0,0,0,0,0,0,0,0,0,0,0,0,0,0,0,0,0,0,0,0,0,0,0,0,0,1.9114,1.9115,0,1.9176,1.9176,1.9177,1.9209,1.9209,1.9209,1.9209,1.927,1.9272,1.9273,0,0,0,0,0,0,0,0,0,0,0,0,0,1.902,1.9022,1.9114,1.9115,1.9116,1.9176,1.9176,1.9177,1.9209,1.9209,1.9209,1.9209,1.927,1.9272,1.9273,0,0,0,0,0,0,0,0,0,0,0,0,0,1.9069,1.9022,1.9114,1.9139,1.9142,1.9175,1.9176,1.9177,1.9209,1.9209,1.9209,1.9209,1.9269,1.9271,1.9274,1.9287,0,0,1.9281,1.9282,0,0,0,0,0,0,0,0,1.9066,1.9073,1.9135,1.9137,1.9141,1.9185,1.9166,1.9214,1.9209,1.9183,1.9209,1.9209,1.9242,1.9246,1.9258,1.929,1.9292,1.9281,1.9283,1.9284,1.9284,0,0,0,0,0,0,0,1.9063,1.907,1.9139,1.9135,1.9139,1.9146,1.9153,1.9175,1.9211,1.9186,1.9188,1.9195,1.9243,1.9255,1.9259,1.9293,1.9281,1.9283,1.9285,1.9286,1.9335,1.9335,0,0,0,0,0,0,1.9056,1.9067,1.9137,1.914,1.9103,1.9147,1.9155,1.917,1.9211,1.9217,1.9195,1.9196,1.9251,1.9256,1.9261,1.9277,1.9284,1.9286,1.9287,1.9335,1.9335,1.9335,0,0,0,0,0,0,1.9054,1.9062,1.9134,1.9104,1.9114,1.9149,1.9166,1.9172,1.9184,1.9218,1.9225,1.9201,1.9251,1.9258,1.928,1.928,1.9287,1.9289,1.9335,1.9335,1.9335,1.931,0,0,0,0,0,0,1.9051,1.9061,1.9068,1.9104,1.9116,1.9152,1.9166,1.9173,1.9188,1.919,1.9225,1.9231,1.9252,1.9276,1.9282,1.9283,1.9291,1.9335,1.9335,1.9335,1.9311,1.9309,1.9307,0,0,0,0,0,1.9048,1.9059,1.9068,1.9076,1.9125,1.9153,1.9159,1.9183,1.9188,1.9194,1.9215,1.923,1.9279,1.9278,1.9285,1.9287,1.9335,1.9335,1.9335,1.9312,1.9309,1.9307,0,0,0,0,0,0,1.9022,1.9064,1.9075,1.9098,1.9121,1.9158,1.9167,1.918,1.9202,1.9204,1.9232,1.924,1.9257,1.9275,1.9273,1.93,1.9308,1.9309,1.9288,1.9286,1.9284,1.928,1.9293,0,0,0,0,0,1.9019,1.9039,1.9074,1.9091,1.9102,1.9132,1.9145,1.9161,1.9186,1.9196,1.922,1.9242,1.9262,1.9275,1.9296,1.9313,1.932,1.9318,1.9316,1.9314,1.9315,1.9322,1.932,1.9334,1.9334,1.9334,0,0,1.9013,1.9038,1.905,1.9087,1.9107,1.9125,1.914,1.916,1.9173,1.9199,1.922,1.9238,1.9265,1.9283,1.9293,1.9298,1.9312,1.9314,1.9312,1.9314,1.9321,1.932,1.9319,1.9334,1.9334,1.9334,0,0,1.9011,1.9034,1.9049,1.9068,1.9097,1.9116,1.9119,1.9153,1.9165,1.9187,1.9206,1.9221,1.9256,1.9274,1.9287,1.9288,1.9301,1.9293,1.9284,1.929,1.9289,1.9288,1.9286,1.9286,1.9294,1.9294,1.9294,0,1.9001,1.903,1.9055,1.9072,1.9087,1.911,1.9124,1.9141,1.9176,1.9184,1.919,1.9232,1.9252,1.9273,1.9273,1.9284,1.9287,1.929,1.9288,1.9287,1.9287,1.9285,1.9284,1.9293,1.9293,1.9293,1.9293,0,1.9013,1.9033,1.9041,1.9073,1.9088,1.9104,1.913,1.9142,1.9156,1.9174,1.9193,1.9218,1.9242,1.9248,1.9263,1.9271,1.9273,1.9282,1.9292,1.9284,1.9282,1.9282,1.9291,1.9291,1.9292,1.9292,0,0,1.9,1.9042,1.9045,1.9058,1.909,1.9105,1.912,1.9144,1.9153,1.9175,1.9187,1.9214,1.9222,1.9237,1.9253,1.9259,1.9254,1.9268,1.9268,1.9263,1.9261,1.9253,1.9252,1.9263,1.9263,1.9263,1.9258,0,1.9002,1.9031,1.9052,1.9072,1.9089,1.9109,1.9122,1.9142,1.9158,1.9173,1.9191,1.9209,1.9219,1.9228,1.9235,1.9253,1.9254,1.9254,1.9273,1.9273,1.9265,1.9252,1.9244,1.9238,1.9258,1.9258,1.9258,0,1.9009,1.9029,1.905,1.9077,1.9085,1.9096,1.9117,1.9132,1.9154,1.9165,1.918,1.9196,1.921,1.9217,1.9237,1.9236,1.9244,1.9254,1.9255,1.9257,1.9265,1.9252,1.9237,1.9236,1.9258,1.9258,1.9258,0,1.8994,1.9026,1.9042,1.9053,1.9086,1.9092,1.9106,1.9128,1.9139,1.9158,1.9165,1.9185,1.9195,1.9209,1.9229,1.9233,1.9245,1.9254,1.9252,1.9252,1.9254,1.9254,1.9239,1.9261,1.9261,1.9261,1.9261,0,1.8994,1.9006,1.9036,1.9046,1.9058,1.9081,1.9093,1.9108,1.9127,1.9138,1.9157,1.9168,1.9193,1.9206,1.9222,1.9233,1.9239,1.9246,1.925,1.9244,1.9243,1.925,1.925,1.9261,1.9261,1.9261,1.9261,0,1.898,1.9001,1.902,1.9047,1.9054,1.9062,1.9086,1.9095,1.9111,1.9125,1.913,1.9154,1.917,1.9191,1.9213,1.9223,1.9232,1.9239,1.9225,1.9227,1.9223,1.9223,1.9212,1.9211,1.9235,1.9234,1.9234,0,1.8978,1.8988,1.9015,1.9024,1.9037,1.9052,1.9063,1.9084,1.9095,1.9118,1.9124,1.9141,1.9155,1.9179,1.9198,1.9214,1.9221,1.9216,1.9224,1.9216,1.9219,1.9217,1.9217,1.9214,1.9214,1.9213,1.9213,0,1.8972,1.8981,1.8996,1.9014,1.9026,1.9042,1.9058,1.9064,1.9088,1.9099,1.9115,1.9126,1.9147,1.9163,1.9181,1.9194,1.9207,1.921,1.921,1.9204,1.9195,1.9198,1.9219,1.9211,1.9211,1.9211,1.9211,1.9211,1.8963,1.8971,1.8991,1.9006,1.902,1.9033,1.9042,1.9058,1.9072,1.9091,1.9102,1.9117,1.9135,1.916,1.9172,1.9182,1.9188,1.9189,1.9188,1.9188,1.9185,1.9193,1.9186,1.9186,1.9186,1.9186,1.9186,0,1.8956,1.8969,1.8983,1.9004,1.9015,1.9025,1.9042,1.9051,1.9063,1.9079,1.9092,1.9108,1.9123,1.9142,1.9157,1.9161,1.9167,1.9165,1.9164,1.9166,1.918,1.9178,1.9159,1.9159,1.9159,1.9159,1.9159,1.9159,1.8954,1.8967,1.8977,1.8995,1.9008,1.9022,1.903,1.9042,1.9054,1.9071,1.9083,1.9095,1.9111,1.9127,1.914,1.9145,1.9149,1.9144,1.915,1.9163,1.9166,1.9168,1.9166,1.9145,1.9145,1.9135,1.9135,1.9135]}]]